EW4803 Weather Reports


time (UTC)temp
C
wind
direction
speed
KPH
gust
KPH
rain 1hr
cm
rain 24hr
cm
rain mn
cm
humidity
%
barometer
mb
20260906173004 23 138 0.0 14.5 0.00 0.00 0.00 71 1019.8
20260906171505 23 33 1.6 8.0 0.00 0.00 0.00 73 1020.0
20260906170002 23 136 0.0 9.7 0.00 0.00 0.00 73 1020.1
20260906164501 23 126 0.0 11.3 0.00 0.00 0.00 73 1020.3
20260906163059 23 155 3.2 14.5 0.00 0.00 0.00 74 1020.3
20260906161557 22 55 0.0 11.3 0.00 0.00 0.00 74 1020.2
20260906160056 22 91 0.0 6.4 0.00 0.00 0.00 76 1020.3
20260906154555 22 110 0.0 11.3 0.00 0.00 0.00 75 1020.3
20260906153052 22 177 0.0 11.3 0.00 0.00 0.00 77 1020.4
20260906151553 22 159 6.4 11.3 0.00 0.00 0.00 76 1020.4
20260906150049 22 188 1.6 14.5 0.00 0.00 0.00 79 1020.2
20260906144548 22 117 0.0 8.0 0.00 0.00 0.00 81 1020.2
20260906143045 21 153 0.0 8.0 0.00 0.00 0.00 84 1020.1
20260906141541 21 141 0.0 6.4 0.00 0.00 0.00 85 1020.4
20260906140042 21 157 0.0 4.8 0.00 0.00 0.00 86 1020.4
20260906134536 20 65 0.0 4.8 0.00 0.00 0.00 88 1020.3
20260906133036 20 134 0.0 1.6 0.00 0.00 0.00 93 1020.1
20260906131530 20 34 0.0 1.6 0.00 0.00 0.00 95 1020.0
20260906130028 20 30 0.0 0.0 0.00 0.00 0.00 95 1020.0
20260906124530 19 29 0.0 0.0 0.00 0.00 0.00 95 1020.0
20260906123032 18 29 0.0 0.0 0.00 0.00 0.00 96 1019.9
20260906121518 17 29 0.0 0.0 0.00 0.00 0.00 96 1019.7
20260906120014 17 29 0.0 0.0 0.00 0.00 0.00 96 1019.5
20260906114511 16 29 0.0 0.0 0.00 0.00 0.00 95 1019.2
20260906113007 16 30 0.0 0.0 0.00 0.00 0.00 96 1018.9
20260906111507 16 30 0.0 0.0 0.00 0.00 0.00 96 1018.9
20260906110003 16 30 0.0 0.0 0.00 0.00 0.00 96 1018.7
20260906104504 16 30 0.0 0.0 0.00 0.00 0.00 96 1018.6
20260906103101 15 30 0.0 0.0 0.00 0.00 0.00 96 1018.6
20260906101555 15 30 0.0 0.0 0.00 0.00 0.00 95 1018.7
20260906100054 15 30 0.0 0.0 0.00 0.00 0.00 96 1018.7
20260906094554 15 30 0.0 0.0 0.00 0.00 0.00 96 1018.4
20260906093055 15 30 0.0 0.0 0.00 0.00 0.00 96 1018.4
20260906091548 14 31 0.0 0.0 0.00 0.00 0.00 96 1018.3
20260906090047 13 30 0.0 0.0 0.00 0.00 0.00 96 1018.2
20260906084546 13 31 0.0 0.0 0.00 0.00 0.00 96 1018.2
20260906083046 13 31 0.0 0.0 0.00 0.00 0.00 96 1018.1
20260906081546 14 31 0.0 0.0 0.00 0.00 0.00 96 1018.1
20260906080046 14 31 0.0 0.0 0.00 0.00 0.00 96 1018.3
20260906074543 14 31 0.0 0.0 0.00 0.00 0.00 96 1018.2
20260906073041 14 31 0.0 0.0 0.00 0.00 0.00 96 1018.1
20260906071540 14 31 0.0 0.0 0.00 0.00 0.00 96 1018.0
20260906070039 13 31 0.0 0.0 0.00 0.00 0.00 96 1017.9
20260906064541 13 31 0.0 0.0 0.00 0.00 0.00 95 1017.6
20260906063037 13 31 0.0 0.0 0.00 0.00 0.00 95 1017.7
20260906061535 13 31 0.0 0.0 0.00 0.00 0.00 95 1017.8
20260906060035 13 31 0.0 0.0 0.00 0.00 0.00 96 1017.8
20260906054538 14 31 0.0 0.0 0.00 0.00 0.00 96 1017.6
20260906053031 13 31 0.0 0.0 0.00 0.00 0.00 95 1017.4
20260906051529 13 31 0.0 0.0 0.00 0.00 0.00 95 1017.3
20260906050027 13 31 0.0 0.0 0.00 0.00 0.00 95 1017.2
20260906044527 13 31 0.0 0.0 0.00 0.00 0.00 95 1017.5
20260906043025 13 31 0.0 0.0 0.00 0.00 0.00 95 1017.2
20260906041522 13 31 0.0 0.0 0.00 0.00 0.00 95 1017.2
20260906040020 14 31 0.0 0.0 0.00 0.00 0.00 95 1017.0
20260906034519 14 31 0.0 0.0 0.00 0.00 0.00 95 1017.0
20260906033017 14 31 0.0 0.0 0.00 0.00 0.00 95 1016.9
20260906031514 15 31 0.0 0.0 0.00 0.00 0.00 94 1016.8
20260906030013 15 31 0.0 0.0 0.00 0.00 0.00 94 1016.7
20260906024511 15 31 0.0 0.0 0.00 0.00 0.00 94 1016.7
20260906023010 16 31 0.0 0.0 0.00 0.00 0.00 94 1016.8
20260906021515 16 31 0.0 0.0 0.00 0.00 0.00 93 1016.8
20260906020005 16 31 0.0 0.0 0.00 0.00 0.00 93 1016.7
20260906014510 16 31 0.0 0.0 0.00 0.00 0.00 92 1016.8
20260906013100 17 31 0.0 0.0 0.00 0.00 0.00 91 1016.6
20260906011605 17 31 0.0 0.0 0.00 0.00 0.00 89 1016.6
20260906010052 18 31 0.0 0.0 0.00 0.00 0.00 88 1016.4
20260906004549 19 31 0.0 0.0 0.00 0.00 0.00 85 1016.2
20260906003046 20 31 0.0 0.0 0.00 0.00 0.00 83 1016.3
20260906001542 20 31 0.0 0.0 0.00 0.00 0.00 78 1016.4
20260906000042 21 47 0.0 1.6 0.00 0.00 0.00 77 1016.0
20260905234542 21 32 0.0 6.4 0.00 0.00 0.00 76 1016.1
20260905233040 22 51 0.0 8.0 0.00 0.00 0.00 77 1016.2
20260905231539 22 17 1.6 9.7 0.00 0.00 0.00 76 1016.3
20260905230038 22 34 1.6 12.9 0.00 0.00 0.00 77 1016.3
20260905224537 22 5 1.6 8.0 0.00 0.00 0.00 77 1016.0
20260905223037 23 13 4.8 14.5 0.00 0.00 0.00 77 1015.9
20260905221536 22 17 0.0 6.4 0.00 0.00 0.00 78 1015.9
20260905220036 22 341 3.2 16.1 0.00 0.00 0.00 78 1016.1
20260905214536 23 48 3.2 9.7 0.00 0.00 0.00 77 1016.1
20260905213033 23 28 4.8 8.0 0.00 0.00 0.00 80 1016.0
20260905211532 22 63 0.0 4.8 0.00 0.00 0.00 83 1016.0
20260905210030 22 360 1.6 9.7 0.00 0.00 0.00 83 1016.1
20260905204530 22 76 1.6 9.7 0.00 0.00 0.00 83 1015.8
20260905203029 22 105 3.2 9.7 0.00 0.00 0.00 84 1015.7
20260905201526 22 90 0.0 4.8 0.00 0.00 0.00 88 1015.9
20260905200032 21 150 0.0 3.2 0.00 0.00 0.00 90 1016.0
20260905194522 21 123 4.8 8.0 0.00 0.00 0.00 89 1016.0
20260905193025 21 28 0.0 3.2 0.00 0.00 0.00 92 1016.0
20260905191526 21 360 0.0 6.4 0.00 0.00 0.00 92 1016.0
20260905190030 21 28 4.8 14.5 0.00 0.00 0.00 93 1016.2
20260905184525 21 15 0.0 9.7 0.00 0.03 0.00 93 1016.2
20260905183018 21 82 1.6 14.5 0.00 0.03 0.00 93 1016.1
20260905181517 21 36 4.8 14.5 0.00 0.03 0.00 93 1016.0
20260905180016 21 10 4.8 9.7 0.00 0.03 0.00 93 1016.1
20260905174524 21 17 3.2 12.9 0.00 0.03 0.00 93 1016.1